Year,Month,Day,Hour,Minute,Value (Times are PST for temperature in C)
2019,08,15,00,00,18.40
2019,08,15,00,01,18.40
2019,08,15,00,02,18.30
2019,08,15,00,03,18.30
2019,08,15,00,04,18.30
2019,08,15,00,05,18.30
2019,08,15,00,06,18.30
2019,08,15,00,07,18.30
2019,08,15,00,08,18.20
2019,08,15,00,09,18.20
2019,08,15,00,10,18.20
2019,08,15,00,11,18.20
2019,08,15,00,12,18.20
2019,08,15,00,13,18.20
2019,08,15,00,14,18.20
2019,08,15,00,15,18.10
2019,08,15,00,16,18.10
2019,08,15,00,17,18.10
2019,08,15,00,18,18.10
2019,08,15,00,19,18.10
2019,08,15,00,20,18.10
2019,08,15,00,21,18.10
2019,08,15,00,22,18.10
2019,08,15,00,23,18.10
2019,08,15,00,24,18.10
2019,08,15,00,25,18.10
2019,08,15,00,26,18.10
2019,08,15,00,27,18.10
2019,08,15,00,28,18.00
2019,08,15,00,29,18.00
2019,08,15,00,30,18.00
2019,08,15,00,31,18.00
2019,08,15,00,32,18.00
2019,08,15,00,33,18.00
2019,08,15,00,34,18.00
2019,08,15,00,35,18.00
2019,08,15,00,36,18.10
2019,08,15,00,37,18.10
2019,08,15,00,38,18.10
2019,08,15,00,39,18.00
2019,08,15,00,40,18.00
2019,08,15,00,41,18.00
2019,08,15,00,42,18.00
2019,08,15,00,43,18.00
2019,08,15,00,44,17.90
2019,08,15,00,45,17.90
2019,08,15,00,46,17.90
2019,08,15,00,47,17.90
2019,08,15,00,48,17.90
2019,08,15,00,49,17.90
2019,08,15,00,50,17.90
2019,08,15,00,51,17.80
2019,08,15,00,52,17.80
2019,08,15,00,53,17.80
2019,08,15,00,54,17.80
2019,08,15,00,55,17.80
2019,08,15,00,56,17.70
2019,08,15,00,57,17.70
2019,08,15,00,58,17.70
2019,08,15,00,59,17.70
2019,08,15,01,00,17.70
2019,08,15,01,01,17.60
2019,08,15,01,02,17.60
2019,08,15,01,03,17.60
2019,08,15,01,04,17.60
2019,08,15,01,05,17.50
2019,08,15,01,06,17.50
2019,08,15,01,07,17.50
2019,08,15,01,08,17.50
2019,08,15,01,09,17.40
2019,08,15,01,10,17.40
2019,08,15,01,11,17.40
2019,08,15,01,12,17.40
2019,08,15,01,13,17.40
2019,08,15,01,14,17.40
2019,08,15,01,15,17.40
2019,08,15,01,16,17.40
2019,08,15,01,17,17.30
2019,08,15,01,18,17.30
2019,08,15,01,19,17.30
2019,08,15,01,20,17.30
2019,08,15,01,21,17.30
2019,08,15,01,22,17.30
2019,08,15,01,23,17.30
2019,08,15,01,24,17.30
2019,08,15,01,25,17.30
2019,08,15,01,26,17.30
2019,08,15,01,27,17.20
2019,08,15,01,28,17.20
2019,08,15,01,29,17.20
2019,08,15,01,30,17.20
2019,08,15,01,31,17.20
2019,08,15,01,32,17.20
2019,08,15,01,33,17.20
2019,08,15,01,34,17.20
2019,08,15,01,35,17.20
2019,08,15,01,36,17.20
2019,08,15,01,37,17.20
2019,08,15,01,38,17.20
2019,08,15,01,39,17.20
2019,08,15,01,40,17.20
2019,08,15,01,41,17.20
2019,08,15,01,42,17.20
2019,08,15,01,43,17.20
2019,08,15,01,44,17.20
2019,08,15,01,45,17.20
2019,08,15,01,46,17.10
2019,08,15,01,47,17.10
2019,08,15,01,48,17.10
2019,08,15,01,49,17.10
2019,08,15,01,50,17.10
2019,08,15,01,51,17.10
2019,08,15,01,52,17.10
2019,08,15,01,53,17.10
2019,08,15,01,54,17.10
2019,08,15,01,55,17.00
2019,08,15,01,56,16.90
2019,08,15,01,57,16.90
2019,08,15,01,58,16.80
2019,08,15,01,59,16.80
2019,08,15,02,00,16.80
2019,08,15,02,01,16.80
2019,08,15,02,02,16.80
2019,08,15,02,03,16.80
2019,08,15,02,04,16.80
2019,08,15,02,05,16.80
2019,08,15,02,06,16.80
2019,08,15,02,07,16.80
2019,08,15,02,08,16.80
2019,08,15,02,09,16.80
2019,08,15,02,10,16.80
2019,08,15,02,11,16.80
2019,08,15,02,12,16.80
2019,08,15,02,13,16.80
2019,08,15,02,14,16.80
2019,08,15,02,15,16.80
2019,08,15,02,16,16.70
2019,08,15,02,17,16.70
2019,08,15,02,18,16.70
2019,08,15,02,19,16.70
2019,08,15,02,20,16.70
2019,08,15,02,21,16.70
2019,08,15,02,22,16.70
2019,08,15,02,23,16.70
2019,08,15,02,24,16.80
2019,08,15,02,25,16.70
2019,08,15,02,26,16.70
2019,08,15,02,27,16.70
2019,08,15,02,28,16.70
2019,08,15,02,29,16.60
2019,08,15,02,30,16.60
2019,08,15,02,31,16.60
2019,08,15,02,32,16.50
2019,08,15,02,33,16.50
2019,08,15,02,34,16.40
2019,08,15,02,35,16.40
2019,08,15,02,36,16.30
2019,08,15,02,37,16.30
2019,08,15,02,38,16.30
2019,08,15,02,39,16.20
2019,08,15,02,40,16.10
2019,08,15,02,41,16.10
2019,08,15,02,42,16.00
2019,08,15,02,43,15.90
2019,08,15,02,44,15.90
2019,08,15,02,45,15.80
2019,08,15,02,46,15.70
2019,08,15,02,47,15.70
2019,08,15,02,48,15.70
2019,08,15,02,49,15.70
2019,08,15,02,50,15.70
2019,08,15,02,51,15.70
2019,08,15,02,52,15.60
2019,08,15,02,53,15.60
2019,08,15,02,54,15.70
2019,08,15,02,55,15.70
2019,08,15,02,56,15.70
2019,08,15,02,57,15.70
2019,08,15,02,58,15.70
2019,08,15,02,59,15.70
2019,08,15,03,00,15.70
2019,08,15,03,01,15.70
2019,08,15,03,02,15.70
2019,08,15,03,03,15.70
2019,08,15,03,04,15.80
2019,08,15,03,05,15.80
2019,08,15,03,06,15.80
2019,08,15,03,07,15.80
2019,08,15,03,08,15.80
2019,08,15,03,09,15.80
2019,08,15,03,10,15.70
2019,08,15,03,11,15.70
2019,08,15,03,12,15.70
2019,08,15,03,13,15.60
2019,08,15,03,14,15.60
2019,08,15,03,15,15.50
2019,08,15,03,16,15.40
2019,08,15,03,17,15.40
2019,08,15,03,18,15.40
2019,08,15,03,19,15.40
2019,08,15,03,20,15.40
2019,08,15,03,21,15.40
2019,08,15,03,22,15.50
2019,08,15,03,23,15.50
2019,08,15,03,24,15.50
2019,08,15,03,25,15.60
2019,08,15,03,26,15.50
2019,08,15,03,27,15.50
2019,08,15,03,28,15.50
2019,08,15,03,29,15.50
2019,08,15,03,30,15.60
2019,08,15,03,31,15.60
2019,08,15,03,32,15.60
2019,08,15,03,33,15.70
2019,08,15,03,34,15.70
2019,08,15,03,35,15.70
2019,08,15,03,36,15.70
2019,08,15,03,37,15.70
2019,08,15,03,38,15.70
2019,08,15,03,39,15.70
2019,08,15,03,40,15.70
2019,08,15,03,41,15.60
2019,08,15,03,42,15.60
2019,08,15,03,43,15.60
2019,08,15,03,44,15.50
2019,08,15,03,45,15.50
2019,08,15,03,46,15.40
2019,08,15,03,47,15.40
2019,08,15,03,48,15.30
2019,08,15,03,49,15.20
2019,08,15,03,50,15.20
2019,08,15,03,51,15.20
2019,08,15,03,52,15.20
2019,08,15,03,53,15.20
2019,08,15,03,54,15.20
2019,08,15,03,55,15.20
2019,08,15,03,56,15.30
2019,08,15,03,57,15.30
2019,08,15,03,58,15.30
2019,08,15,03,59,15.30
2019,08,15,04,00,15.30
2019,08,15,04,01,15.30
2019,08,15,04,02,15.40
2019,08,15,04,03,15.40
2019,08,15,04,04,15.40
2019,08,15,04,05,15.50
2019,08,15,04,06,15.50
2019,08,15,04,07,15.60
2019,08,15,04,08,15.60
2019,08,15,04,09,15.60
2019,08,15,04,10,15.70
2019,08,15,04,11,15.70
2019,08,15,04,12,15.80
2019,08,15,04,13,15.80
2019,08,15,04,14,15.80
2019,08,15,04,15,15.90
2019,08,15,04,16,15.90
2019,08,15,04,17,15.90
2019,08,15,04,18,15.90
2019,08,15,04,19,15.90
2019,08,15,04,20,15.90
2019,08,15,04,21,15.90
2019,08,15,04,22,15.90
2019,08,15,04,23,15.90
2019,08,15,04,24,15.90
2019,08,15,04,25,15.90
2019,08,15,04,26,15.90
2019,08,15,04,27,15.90
2019,08,15,04,28,15.90
2019,08,15,04,29,15.90
2019,08,15,04,30,15.90
2019,08,15,04,31,15.90
2019,08,15,04,32,15.90
2019,08,15,04,33,15.80
2019,08,15,04,34,15.80
2019,08,15,04,35,15.80
2019,08,15,04,36,15.80
2019,08,15,04,37,15.80
2019,08,15,04,38,15.80
2019,08,15,04,39,15.70
2019,08,15,04,40,15.70
2019,08,15,04,41,15.70
2019,08,15,04,42,15.70
2019,08,15,04,43,15.70
2019,08,15,04,44,15.70
2019,08,15,04,45,15.70
2019,08,15,04,46,15.80
2019,08,15,04,47,15.80
2019,08,15,04,48,15.80
2019,08,15,04,49,15.80
2019,08,15,04,50,15.80
2019,08,15,04,51,15.80
2019,08,15,04,52,15.80
2019,08,15,04,53,15.80
2019,08,15,04,54,15.80
2019,08,15,04,55,15.80
2019,08,15,04,56,15.80
2019,08,15,04,57,15.80
2019,08,15,04,58,15.80
2019,08,15,04,59,15.80
2019,08,15,05,00,15.80
2019,08,15,05,01,15.80
2019,08,15,05,02,15.80
2019,08,15,05,03,15.80
2019,08,15,05,04,15.70
2019,08,15,05,05,15.70
2019,08,15,05,06,15.70
2019,08,15,05,07,15.70
2019,08,15,05,08,15.70
2019,08,15,05,09,15.70
2019,08,15,05,10,15.60
2019,08,15,05,11,15.60
2019,08,15,05,12,15.50
2019,08,15,05,13,15.50
2019,08,15,05,14,15.40
2019,08,15,05,15,15.40
2019,08,15,05,16,15.40
2019,08,15,05,17,15.40
2019,08,15,05,18,15.30
2019,08,15,05,19,15.30
2019,08,15,05,20,15.30
2019,08,15,05,21,15.30
2019,08,15,05,22,15.30
2019,08,15,05,23,15.30
2019,08,15,05,24,15.30
2019,08,15,05,25,15.30
2019,08,15,05,26,15.20
2019,08,15,05,27,15.20
2019,08,15,05,28,15.20
2019,08,15,05,29,15.20
2019,08,15,05,30,15.20
2019,08,15,05,31,15.20
2019,08,15,05,32,15.20
2019,08,15,05,33,15.20
2019,08,15,05,34,15.20
2019,08,15,05,35,15.20
2019,08,15,05,36,15.20
2019,08,15,05,37,15.20
2019,08,15,05,38,15.20
2019,08,15,05,39,15.20
2019,08,15,05,40,15.10
2019,08,15,05,41,15.20
2019,08,15,05,42,15.20
2019,08,15,05,43,15.20
2019,08,15,05,44,15.20
2019,08,15,05,45,15.20
2019,08,15,05,46,15.20
2019,08,15,05,47,15.20
2019,08,15,05,48,15.10
2019,08,15,05,49,15.10
2019,08,15,05,50,15.10
2019,08,15,05,51,15.10
2019,08,15,05,52,15.10
2019,08,15,05,53,15.10
2019,08,15,05,54,15.10
2019,08,15,05,55,15.10
2019,08,15,05,56,15.10
2019,08,15,05,57,15.10
2019,08,15,05,58,15.10
2019,08,15,05,59,15.00
2019,08,15,06,00,15.00
2019,08,15,06,01,15.00
2019,08,15,06,02,15.00
2019,08,15,06,03,15.00
2019,08,15,06,04,15.00
2019,08,15,06,05,15.00
2019,08,15,06,06,15.00
2019,08,15,06,07,15.00
2019,08,15,06,08,15.00
2019,08,15,06,09,15.00
2019,08,15,06,10,14.90
2019,08,15,06,11,14.90
2019,08,15,06,12,14.90
2019,08,15,06,13,14.90
2019,08,15,06,14,14.90
2019,08,15,06,15,14.90
2019,08,15,06,16,14.90
2019,08,15,06,17,14.90
2019,08,15,06,18,14.80
2019,08,15,06,19,14.80
2019,08,15,06,20,14.80
2019,08,15,06,21,14.80
2019,08,15,06,22,14.80
2019,08,15,06,23,14.80
2019,08,15,06,24,14.80
2019,08,15,06,25,14.80
2019,08,15,06,26,14.80
2019,08,15,06,27,14.80
2019,08,15,06,28,14.80
2019,08,15,06,29,14.80
2019,08,15,06,30,14.80
2019,08,15,06,31,14.80
2019,08,15,06,32,14.80
2019,08,15,06,33,14.80
2019,08,15,06,34,14.80
2019,08,15,06,35,14.80
2019,08,15,06,36,14.80
2019,08,15,06,37,14.80
2019,08,15,06,38,14.80
2019,08,15,06,39,14.80
2019,08,15,06,40,14.80
2019,08,15,06,41,14.80
2019,08,15,06,42,14.70
2019,08,15,06,43,14.70
2019,08,15,06,44,14.70
2019,08,15,06,45,14.70
2019,08,15,06,46,14.70
2019,08,15,06,47,14.70
2019,08,15,06,48,14.70
2019,08,15,06,49,14.70
2019,08,15,06,50,14.70
2019,08,15,06,51,14.80
2019,08,15,06,52,14.80
2019,08,15,06,53,14.70
2019,08,15,06,54,14.70
2019,08,15,06,55,14.70
2019,08,15,06,56,14.70
2019,08,15,06,57,14.80
2019,08,15,06,58,14.80
2019,08,15,06,59,14.80
2019,08,15,07,00,14.80
2019,08,15,07,01,14.80
2019,08,15,07,02,14.80
2019,08,15,07,03,14.80
2019,08,15,07,04,14.80
2019,08,15,07,05,14.90
2019,08,15,07,06,14.90
2019,08,15,07,07,14.90
2019,08,15,07,08,14.90
2019,08,15,07,09,14.90
2019,08,15,07,10,15.00
2019,08,15,07,11,15.00
2019,08,15,07,12,15.10
2019,08,15,07,13,15.10
2019,08,15,07,14,15.10
2019,08,15,07,15,15.10
2019,08,15,07,16,15.20
2019,08,15,07,17,15.20
2019,08,15,07,18,15.20
2019,08,15,07,19,15.20
2019,08,15,07,20,15.30
2019,08,15,07,21,15.30
2019,08,15,07,22,15.30
2019,08,15,07,23,15.40
2019,08,15,07,24,15.40
2019,08,15,07,25,15.40
2019,08,15,07,26,15.40
2019,08,15,07,27,15.50
2019,08,15,07,28,15.50
2019,08,15,07,29,15.60
2019,08,15,07,30,15.60
2019,08,15,07,31,15.60
2019,08,15,07,32,15.60
2019,08,15,07,33,15.70
2019,08,15,07,34,15.70
2019,08,15,07,35,15.70
2019,08,15,07,36,15.80
2019,08,15,07,37,15.80
2019,08,15,07,38,15.80
2019,08,15,07,39,15.80
2019,08,15,07,40,15.80
2019,08,15,07,41,15.90
2019,08,15,07,42,15.90
2019,08,15,07,43,15.90
2019,08,15,07,44,15.90
2019,08,15,07,45,16.00
2019,08,15,07,46,16.00
2019,08,15,07,47,16.00
2019,08,15,07,48,16.10
2019,08,15,07,49,16.10
2019,08,15,07,50,16.10
2019,08,15,07,51,16.20
2019,08,15,07,52,16.20
2019,08,15,07,53,16.20
2019,08,15,07,54,16.20
2019,08,15,07,55,16.30
2019,08,15,07,56,16.30
2019,08,15,07,57,16.30
2019,08,15,07,58,16.40
2019,08,15,07,59,16.40
2019,08,15,08,00,16.40
2019,08,15,08,01,16.40
2019,08,15,08,02,16.50
2019,08,15,08,03,16.50
2019,08,15,08,04,16.50
2019,08,15,08,05,16.60
2019,08,15,08,06,16.60
2019,08,15,08,07,16.60
2019,08,15,08,08,16.70
2019,08,15,08,09,16.70
2019,08,15,08,10,16.70
2019,08,15,08,11,16.70
2019,08,15,08,12,16.80
2019,08,15,08,13,16.80
2019,08,15,08,14,16.80
2019,08,15,08,15,16.80
2019,08,15,08,16,16.90
2019,08,15,08,17,16.90
2019,08,15,08,18,16.90
2019,08,15,08,19,17.00
2019,08,15,08,20,17.00
2019,08,15,08,21,17.10
2019,08,15,08,22,17.10
2019,08,15,08,23,17.10
2019,08,15,08,24,17.10
2019,08,15,08,25,17.10
2019,08,15,08,26,17.10
2019,08,15,08,27,17.10
2019,08,15,08,28,17.10
2019,08,15,08,29,17.20
2019,08,15,08,30,17.20
2019,08,15,08,31,17.20
2019,08,15,08,32,17.20
2019,08,15,08,33,17.20
2019,08,15,08,34,17.30
2019,08,15,08,35,17.30
2019,08,15,08,36,17.30
2019,08,15,08,37,17.30
2019,08,15,08,38,17.30
2019,08,15,08,39,17.30
2019,08,15,08,40,17.30
2019,08,15,08,41,17.30
2019,08,15,08,42,17.30
2019,08,15,08,43,17.30
2019,08,15,08,44,17.30
2019,08,15,08,45,17.30
2019,08,15,08,46,17.40
2019,08,15,08,47,17.40
2019,08,15,08,48,17.40
2019,08,15,08,49,17.40
2019,08,15,08,50,17.50
2019,08,15,08,51,17.50
2019,08,15,08,52,17.50
2019,08,15,08,53,17.60
2019,08,15,08,54,17.60
2019,08,15,08,55,17.70
2019,08,15,08,56,17.70
2019,08,15,08,57,17.80
2019,08,15,08,58,17.80
2019,08,15,08,59,17.80
2019,08,15,09,00,17.80
2019,08,15,09,01,17.80
2019,08,15,09,02,17.80
2019,08,15,09,03,17.90
2019,08,15,09,04,17.90
2019,08,15,09,05,17.90
2019,08,15,09,06,17.90
2019,08,15,09,07,17.90
2019,08,15,09,08,18.00
2019,08,15,09,09,18.00
2019,08,15,09,10,18.00
2019,08,15,09,11,18.00
2019,08,15,09,12,18.10
2019,08,15,09,13,18.10
2019,08,15,09,14,18.10
2019,08,15,09,15,18.20
2019,08,15,09,16,18.20
2019,08,15,09,17,18.20
2019,08,15,09,18,18.20
2019,08,15,09,19,18.20
2019,08,15,09,20,18.20
2019,08,15,09,21,18.30
2019,08,15,09,22,18.30
2019,08,15,09,23,18.30
2019,08,15,09,24,18.30
2019,08,15,09,25,18.30
2019,08,15,09,26,18.40
2019,08,15,09,27,18.40
2019,08,15,09,28,18.40
2019,08,15,09,29,18.50
2019,08,15,09,30,18.50
2019,08,15,09,31,18.50
2019,08,15,09,32,18.50
2019,08,15,09,33,18.60
2019,08,15,09,34,18.60
2019,08,15,09,35,18.60
2019,08,15,09,36,18.60
2019,08,15,09,37,18.50
2019,08,15,09,38,18.40
2019,08,15,09,39,18.40
2019,08,15,09,40,18.30
2019,08,15,09,41,18.30
2019,08,15,09,42,18.30
2019,08,15,09,43,18.30
2019,08,15,09,44,18.40
2019,08,15,09,45,18.40
2019,08,15,09,46,18.40
2019,08,15,09,47,18.40
2019,08,15,09,48,18.40
2019,08,15,09,49,18.40
2019,08,15,09,50,18.40
2019,08,15,09,51,18.40
2019,08,15,09,52,18.50
2019,08,15,09,53,18.50
2019,08,15,09,54,18.50
2019,08,15,09,55,18.40
2019,08,15,09,56,18.40
2019,08,15,09,57,18.40
2019,08,15,09,58,18.40
2019,08,15,09,59,18.40
2019,08,15,10,00,18.40
2019,08,15,10,01,18.50
2019,08,15,10,02,18.50
2019,08,15,10,03,18.50
2019,08,15,10,04,18.50
2019,08,15,10,05,18.60
2019,08,15,10,06,18.60
2019,08,15,10,07,18.60
2019,08,15,10,08,18.70
2019,08,15,10,09,18.70
2019,08,15,10,10,18.70
2019,08,15,10,11,18.70
2019,08,15,10,12,18.80
2019,08,15,10,13,18.80
2019,08,15,10,14,18.80
2019,08,15,10,15,18.80
2019,08,15,10,16,18.80
2019,08,15,10,17,18.80
2019,08,15,10,18,18.80
2019,08,15,10,19,18.80
2019,08,15,10,20,18.80
2019,08,15,10,21,18.90
2019,08,15,10,22,18.90
2019,08,15,10,23,18.90
2019,08,15,10,24,18.90
2019,08,15,10,25,18.90
2019,08,15,10,26,18.90
2019,08,15,10,27,18.90
2019,08,15,10,28,18.90
2019,08,15,10,29,19.00
2019,08,15,10,30,19.00
2019,08,15,10,31,19.00
2019,08,15,10,32,19.00
2019,08,15,10,33,19.10
2019,08,15,10,34,19.10
2019,08,15,10,35,19.10
2019,08,15,10,36,19.20
2019,08,15,10,37,19.20
2019,08,15,10,38,19.20
2019,08,15,10,39,19.30
2019,08,15,10,40,19.30
2019,08,15,10,41,19.40
2019,08,15,10,42,19.40
2019,08,15,10,43,19.50
2019,08,15,10,44,19.50
2019,08,15,10,45,19.50
2019,08,15,10,46,19.50
2019,08,15,10,47,19.50
2019,08,15,10,48,19.60
2019,08,15,10,49,19.60
2019,08,15,10,50,19.60
2019,08,15,10,51,19.60
2019,08,15,10,52,19.70
2019,08,15,10,53,19.70
2019,08,15,10,54,19.70
2019,08,15,10,55,19.70
2019,08,15,10,56,19.70
2019,08,15,10,57,19.70
2019,08,15,10,58,19.60
2019,08,15,10,59,19.60
2019,08,15,11,00,19.50
2019,08,15,11,01,19.50
2019,08,15,11,02,19.40
2019,08,15,11,03,19.40
2019,08,15,11,04,19.40
2019,08,15,11,05,19.40
2019,08,15,11,06,19.40
2019,08,15,11,07,19.40
2019,08,15,11,08,19.40
2019,08,15,11,09,19.30
2019,08,15,11,10,19.40
2019,08,15,11,11,19.40
2019,08,15,11,12,19.40
2019,08,15,11,13,19.40
2019,08,15,11,14,19.40
2019,08,15,11,15,19.50
2019,08,15,11,16,19.50
2019,08,15,11,17,19.60
2019,08,15,11,18,19.60
2019,08,15,11,19,19.70
2019,08,15,11,20,19.70
2019,08,15,11,21,19.70
2019,08,15,11,22,19.80
2019,08,15,11,23,19.80
2019,08,15,11,24,19.90
2019,08,15,11,25,19.90
2019,08,15,11,26,19.90
2019,08,15,11,27,20.00
2019,08,15,11,28,20.00
2019,08,15,11,29,20.10
2019,08,15,11,30,20.20
2019,08,15,11,31,20.20
2019,08,15,11,32,20.20
2019,08,15,11,33,20.10
2019,08,15,11,34,20.10
2019,08,15,11,35,20.00
2019,08,15,11,36,19.90
2019,08,15,11,37,19.90
2019,08,15,11,38,19.90
2019,08,15,11,39,20.00
2019,08,15,11,40,20.00
2019,08,15,11,41,20.00
2019,08,15,11,42,20.00
2019,08,15,11,43,20.00
2019,08,15,11,44,20.10
2019,08,15,11,45,20.10
2019,08,15,11,46,20.10
2019,08,15,11,47,20.10
2019,08,15,11,48,20.10
2019,08,15,11,49,20.10
2019,08,15,11,50,20.10
2019,08,15,11,51,20.00
2019,08,15,11,52,20.00
2019,08,15,11,53,19.90
2019,08,15,11,54,19.90
2019,08,15,11,55,19.90
2019,08,15,11,56,19.90
2019,08,15,11,57,19.90
2019,08,15,11,58,19.90
2019,08,15,11,59,20.00
2019,08,15,12,00,20.10
2019,08,15,12,01,20.10
2019,08,15,12,02,20.20
2019,08,15,12,03,20.30
2019,08,15,12,04,20.40
2019,08,15,12,05,20.50
2019,08,15,12,06,20.60
2019,08,15,12,07,20.60
2019,08,15,12,08,20.70
2019,08,15,12,09,20.70
2019,08,15,12,10,20.70
2019,08,15,12,11,20.70
2019,08,15,12,12,20.70
2019,08,15,12,13,20.70
2019,08,15,12,14,20.80
2019,08,15,12,15,20.80
2019,08,15,12,16,20.80
2019,08,15,12,17,20.80
2019,08,15,12,18,20.80
2019,08,15,12,19,20.80
2019,08,15,12,20,20.70
2019,08,15,12,21,20.70
2019,08,15,12,22,20.70
2019,08,15,12,23,20.70
2019,08,15,12,24,20.70
2019,08,15,12,25,20.80
2019,08,15,12,26,20.80
2019,08,15,12,27,20.80
2019,08,15,12,28,20.90
2019,08,15,12,29,20.90
2019,08,15,12,30,20.90
2019,08,15,12,31,20.90
2019,08,15,12,32,20.90
2019,08,15,12,33,21.00
2019,08,15,12,34,21.00
2019,08,15,12,35,21.00
2019,08,15,12,36,21.00
2019,08,15,12,37,21.10
2019,08,15,12,38,21.10
2019,08,15,12,39,21.10
2019,08,15,12,40,21.20
2019,08,15,12,41,21.20
2019,08,15,12,42,21.20
2019,08,15,12,43,21.20
2019,08,15,12,44,21.20
2019,08,15,12,45,21.30
2019,08,15,12,46,21.20
2019,08,15,12,47,21.30
2019,08,15,12,48,21.30
2019,08,15,12,49,21.30
2019,08,15,12,50,21.30
2019,08,15,12,51,21.30
2019,08,15,12,52,21.30
2019,08,15,12,53,21.40
2019,08,15,12,54,21.40
2019,08,15,12,55,21.40
2019,08,15,12,56,21.40
2019,08,15,12,57,21.40
2019,08,15,12,58,21.40
2019,08,15,12,59,21.40
2019,08,15,13,00,21.50
2019,08,15,13,01,21.50
2019,08,15,13,02,21.60
2019,08,15,13,03,21.70
2019,08,15,13,04,21.70
2019,08,15,13,05,21.80
2019,08,15,13,06,21.90
2019,08,15,13,07,21.90
2019,08,15,13,08,22.00
2019,08,15,13,09,22.00
2019,08,15,13,10,21.90
2019,08,15,13,11,21.80
2019,08,15,13,12,21.80
2019,08,15,13,13,21.70
2019,08,15,13,14,21.70
2019,08,15,13,15,21.70
2019,08,15,13,16,21.70
2019,08,15,13,17,21.70
2019,08,15,13,18,21.70
2019,08,15,13,19,21.70
2019,08,15,13,20,21.80
2019,08,15,13,21,21.90
2019,08,15,13,22,21.90
2019,08,15,13,23,21.90
2019,08,15,13,24,21.90
2019,08,15,13,25,21.90
2019,08,15,13,26,22.00
2019,08,15,13,27,22.00
2019,08,15,13,28,22.00
2019,08,15,13,29,21.90
2019,08,15,13,30,21.80
2019,08,15,13,31,21.60
2019,08,15,13,32,21.50
2019,08,15,13,33,21.40
2019,08,15,13,34,21.30
2019,08,15,13,35,21.30
2019,08,15,13,36,21.30
2019,08,15,13,37,21.30
2019,08,15,13,38,21.30
2019,08,15,13,39,21.30
2019,08,15,13,40,21.30
2019,08,15,13,41,21.40
2019,08,15,13,42,21.40
2019,08,15,13,43,21.50
2019,08,15,13,44,21.60
2019,08,15,13,45,21.70
2019,08,15,13,46,21.70
2019,08,15,13,47,21.70
2019,08,15,13,48,21.70
2019,08,15,13,49,21.70
2019,08,15,13,50,21.70
2019,08,15,13,51,21.70
2019,08,15,13,52,21.70
2019,08,15,13,53,21.70
2019,08,15,13,54,21.80
2019,08,15,13,55,21.80
2019,08,15,13,56,21.80
2019,08,15,13,57,21.90
2019,08,15,13,58,22.00
2019,08,15,13,59,22.00
2019,08,15,14,00,22.10
2019,08,15,14,01,22.20
2019,08,15,14,02,22.20
2019,08,15,14,03,22.30
2019,08,15,14,04,22.40
2019,08,15,14,05,22.50
2019,08,15,14,06,22.60
2019,08,15,14,07,22.60
2019,08,15,14,08,22.50
2019,08,15,14,09,22.50
2019,08,15,14,10,22.50
2019,08,15,14,11,22.50
2019,08,15,14,12,22.50
2019,08,15,14,13,22.50
2019,08,15,14,14,22.50
2019,08,15,14,15,22.60
2019,08,15,14,16,22.60
2019,08,15,14,17,22.80
2019,08,15,14,18,22.90
2019,08,15,14,19,23.00
2019,08,15,14,20,23.10
2019,08,15,14,21,23.10
2019,08,15,14,22,23.20
2019,08,15,14,23,23.10
2019,08,15,14,24,23.10
2019,08,15,14,25,23.00
2019,08,15,14,26,23.00
2019,08,15,14,27,22.90
2019,08,15,14,28,22.80
2019,08,15,14,29,22.80
2019,08,15,14,30,22.80
2019,08,15,14,31,22.80
2019,08,15,14,32,22.80
2019,08,15,14,33,22.80
2019,08,15,14,34,22.80
2019,08,15,14,35,22.80
2019,08,15,14,36,22.90
2019,08,15,14,37,22.90
2019,08,15,14,38,23.00
2019,08,15,14,39,23.00
2019,08,15,14,40,23.10
2019,08,15,14,41,23.10
2019,08,15,14,42,23.10
2019,08,15,14,43,23.10
2019,08,15,14,44,23.20
2019,08,15,14,45,23.10
2019,08,15,14,46,23.10
2019,08,15,14,47,23.10
2019,08,15,14,48,23.10
2019,08,15,14,49,23.10
2019,08,15,14,50,23.10
2019,08,15,14,51,23.10
2019,08,15,14,52,23.10
2019,08,15,14,53,23.10
2019,08,15,14,54,23.10
2019,08,15,14,55,23.10
2019,08,15,14,56,23.10
2019,08,15,14,57,23.10
2019,08,15,14,58,23.10
2019,08,15,14,59,23.20
2019,08,15,15,00,23.20
2019,08,15,15,01,23.40
2019,08,15,15,02,23.50
2019,08,15,15,03,23.60
2019,08,15,15,04,23.60
2019,08,15,15,05,23.60
2019,08,15,15,06,23.70
2019,08,15,15,07,23.70
2019,08,15,15,08,23.70
2019,08,15,15,09,23.70
2019,08,15,15,10,23.80
2019,08,15,15,11,23.80
2019,08,15,15,12,23.80
2019,08,15,15,13,23.80
2019,08,15,15,14,23.90
2019,08,15,15,15,23.90
2019,08,15,15,16,23.90
2019,08,15,15,17,23.90
2019,08,15,15,18,23.90
2019,08,15,15,19,23.90
2019,08,15,15,20,23.90
2019,08,15,15,21,23.90
2019,08,15,15,22,23.90
2019,08,15,15,23,23.90
2019,08,15,15,24,23.90
2019,08,15,15,25,23.90
2019,08,15,15,26,24.00
2019,08,15,15,27,24.00
2019,08,15,15,28,24.00
2019,08,15,15,29,24.00
2019,08,15,15,30,24.00
2019,08,15,15,31,24.10
2019,08,15,15,32,24.10
2019,08,15,15,33,24.00
2019,08,15,15,34,24.00
2019,08,15,15,35,23.90
2019,08,15,15,36,23.90
2019,08,15,15,37,23.90
2019,08,15,15,38,23.90
2019,08,15,15,39,23.80
2019,08,15,15,40,23.80
2019,08,15,15,41,23.80
2019,08,15,15,42,23.90
2019,08,15,15,43,23.90
2019,08,15,15,44,23.80
2019,08,15,15,45,23.80
2019,08,15,15,46,23.80
2019,08,15,15,47,23.80
2019,08,15,15,48,23.80
2019,08,15,15,49,23.80
2019,08,15,15,50,23.80
2019,08,15,15,51,23.80
2019,08,15,15,52,23.80
2019,08,15,15,53,23.90
2019,08,15,15,54,23.90
2019,08,15,15,55,24.00
2019,08,15,15,56,24.10
2019,08,15,15,57,24.10
2019,08,15,15,58,24.20
2019,08,15,15,59,24.20
2019,08,15,16,00,24.30
2019,08,15,16,01,24.40
2019,08,15,16,02,24.40
2019,08,15,16,03,24.50
2019,08,15,16,04,24.60
2019,08,15,16,05,24.60
2019,08,15,16,06,24.70
2019,08,15,16,07,24.70
2019,08,15,16,08,24.70
2019,08,15,16,09,24.70
2019,08,15,16,10,24.70
2019,08,15,16,11,24.80
2019,08,15,16,12,24.80
2019,08,15,16,13,24.90
2019,08,15,16,14,24.90
2019,08,15,16,15,25.00
2019,08,15,16,16,25.00
2019,08,15,16,17,25.10
2019,08,15,16,18,25.00
2019,08,15,16,19,25.00
2019,08,15,16,20,24.90
2019,08,15,16,21,24.80
2019,08,15,16,22,24.80
2019,08,15,16,23,24.70
2019,08,15,16,24,24.60
2019,08,15,16,25,24.60
2019,08,15,16,26,24.60
2019,08,15,16,27,24.60
2019,08,15,16,28,24.60
2019,08,15,16,29,24.60
2019,08,15,16,30,24.60
2019,08,15,16,31,24.60
2019,08,15,16,32,24.60
2019,08,15,16,33,24.70
2019,08,15,16,34,24.70
2019,08,15,16,35,24.70
2019,08,15,16,36,24.80
2019,08,15,16,37,24.80
2019,08,15,16,38,24.80
2019,08,15,16,39,24.90
2019,08,15,16,40,25.00
2019,08,15,16,41,25.00
2019,08,15,16,42,25.10
2019,08,15,16,43,25.10
2019,08,15,16,44,25.10
2019,08,15,16,45,25.00
2019,08,15,16,46,24.90
2019,08,15,16,47,24.90
2019,08,15,16,48,24.80
2019,08,15,16,49,24.90
2019,08,15,16,50,24.90
2019,08,15,16,51,25.00
2019,08,15,16,52,25.00
2019,08,15,16,53,25.10
2019,08,15,16,54,25.10
2019,08,15,16,55,25.10
2019,08,15,16,56,25.10
2019,08,15,16,57,25.10
2019,08,15,16,58,25.10
2019,08,15,16,59,25.20
2019,08,15,17,00,25.20
2019,08,15,17,01,25.30
2019,08,15,17,02,25.30
2019,08,15,17,03,25.30
2019,08,15,17,04,25.30
2019,08,15,17,05,25.30
2019,08,15,17,06,25.40
2019,08,15,17,07,25.40
2019,08,15,17,08,25.40
2019,08,15,17,09,25.50
2019,08,15,17,10,25.50
2019,08,15,17,11,25.60
2019,08,15,17,12,25.60
2019,08,15,17,13,25.70
2019,08,15,17,14,25.70
2019,08,15,17,15,25.70
2019,08,15,17,16,25.70
2019,08,15,17,17,25.70
2019,08,15,17,18,25.70
2019,08,15,17,19,25.70